[[{"header":{"parameterUnit":"m.s-1","parameterCategory":2,"la1":30.2991,"la2":30.254,"lo1":-89.0895,"lo2":-89.0444,"dy":0.0017,"dx":0.0017,"nx":28,"ny":28,"refTime":"2025-11-17T03:00:00:Z","depth":"0","parameterNumber":2,"parameterNumberName":"U-component_of_CURRENTS"},"data":[0,0,0,0,0,0,0,0,0,0,0,0,0,0,0,0,0,0,0,0,0,0,0,0,0,0,0,0,0,0,0,0,0,0,0,0,0,0,0,0,0,0,0,0,0,0,0,0,0,0,0,0,0,0,0,0,0,0,-0.2413,-0.2414,0,-0.2408,-0.2407,-0.2407,-0.2332,-0.233,-0.2329,-0.2328,-0.2198,-0.2196,-0.2193,0,0,0,0,0,0,0,0,0,0,0,0,0,-0.2343,-0.2344,-0.2413,-0.2414,-0.2414,-0.2408,-0.2407,-0.2407,-0.2332,-0.233,-0.2329,-0.2327,-0.2199,-0.2196,-0.2193,0,0,0,0,0,0,0,0,0,0,0,0,0,-0.2353,-0.2344,-0.2413,-0.2381,-0.2379,-0.2408,-0.2407,-0.2406,-0.2332,-0.233,-0.2328,-0.2326,-0.2199,-0.2196,-0.2193,-0.2211,0,0,-0.2183,-0.2181,0,0,0,0,0,0,0,0,-0.2352,-0.2355,-0.2385,-0.2383,-0.2381,-0.2374,-0.2335,-0.2337,-0.2333,-0.2343,-0.2328,-0.2325,-0.2251,-0.2243,-0.2239,-0.2205,-0.22,-0.2182,-0.218,-0.2179,-0.2178,0,0,0,0,0,0,0,-0.2352,-0.2354,-0.2404,-0.2386,-0.2384,-0.2362,-0.2361,-0.2335,-0.2301,-0.2342,-0.2338,-0.2348,-0.2248,-0.2243,-0.2235,-0.2198,-0.2182,-0.2179,-0.2177,-0.2176,-0.2182,-0.2184,0,0,0,0,0,0,-0.2369,-0.2354,-0.2405,-0.2405,-0.2369,-0.2365,-0.2363,-0.2373,-0.2303,-0.2294,-0.235,-0.2345,-0.2249,-0.2239,-0.223,-0.2273,-0.2179,-0.2176,-0.2174,-0.2179,-0.2182,-0.2184,0,0,0,0,0,0,-0.2368,-0.2374,-0.2405,-0.2384,-0.2388,-0.2369,-0.238,-0.2374,-0.2374,-0.2312,-0.2298,-0.2358,-0.2247,-0.2235,-0.2222,-0.2266,-0.2174,-0.2171,-0.2177,-0.218,-0.2183,-0.2341,0,0,0,0,0,0,-0.2365,-0.2373,-0.2381,-0.2386,-0.239,-0.2446,-0.2383,-0.2376,-0.2387,-0.238,-0.2315,-0.23,-0.2245,-0.2227,-0.2218,-0.2259,-0.2168,-0.2174,-0.2178,-0.2182,-0.2333,-0.2349,-0.2363,0,0,0,0,0,-0.2363,-0.2401,-0.2382,-0.2388,-0.2403,-0.2449,-0.2449,-0.2424,-0.2389,-0.2411,-0.2359,-0.2303,-0.2246,-0.2227,-0.2215,-0.2257,-0.2172,-0.2177,-0.2182,-0.2327,-0.2346,-0.2363,0,0,0,0,0,0,-0.2363,-0.2397,-0.2376,-0.2416,-0.2437,-0.2439,-0.246,-0.2441,-0.242,-0.2409,-0.2329,-0.2313,-0.2314,-0.227,-0.225,-0.2271,-0.2201,-0.2204,-0.2315,-0.2333,-0.2348,-0.2372,-0.2166,0,0,0,0,0,-0.2372,-0.2405,-0.243,-0.2454,-0.2477,-0.2468,-0.248,-0.2474,-0.2462,-0.245,-0.2402,-0.2356,-0.2329,-0.2318,-0.2281,-0.2301,-0.2273,-0.232,-0.2336,-0.2349,-0.2362,-0.2371,-0.2388,-0.22,-0.22,-0.22,0,0,-0.2371,-0.2397,-0.2409,-0.2457,-0.2466,-0.2529,-0.2469,-0.2514,-0.255,-0.244,-0.2459,-0.2403,-0.2343,-0.2356,-0.2354,-0.2325,-0.239,-0.2355,-0.2366,-0.2372,-0.2378,-0.2396,-0.2412,-0.2204,-0.2203,-0.2203,0,0,-0.242,-0.2422,-0.2481,-0.2521,-0.2569,-0.2577,-0.26,-0.2619,-0.2611,-0.2633,-0.2556,-0.2535,-0.2496,-0.2467,-0.2445,-0.2527,-0.2463,-0.2512,-0.2617,-0.2627,-0.2642,-0.2656,-0.2658,-0.267,-0.2529,-0.253,-0.253,0,-0.2419,-0.2495,-0.2503,-0.2585,-0.2625,-0.261,-0.2691,-0.27,-0.2703,-0.2706,-0.266,-0.2611,-0.2555,-0.2572,-0.2594,-0.2563,-0.2551,-0.2554,-0.2648,-0.266,-0.2671,-0.267,-0.2682,-0.2538,-0.2537,-0.2536,-0.2535,0,-0.252,-0.2589,-0.2635,-0.2727,-0.277,-0.2841,-0.287,-0.2893,-0.2874,-0.287,-0.2873,-0.28,-0.2766,-0.2753,-0.2695,-0.2748,-0.271,-0.266,-0.2606,-0.27,-0.2692,-0.2702,-0.2549,-0.2547,-0.2544,-0.2542,0,0,-0.2483,-0.2674,-0.2681,-0.2755,-0.2856,-0.2898,-0.2978,-0.3036,-0.3066,-0.3057,-0.3089,-0.3044,-0.2985,-0.2956,-0.2882,-0.2893,-0.2956,-0.2821,-0.2818,-0.2831,-0.298,-0.2814,-0.2807,-0.2925,-0.2927,-0.2929,-0.2949,0,-0.2553,-0.2738,-0.2805,-0.2949,-0.3047,-0.3078,-0.3142,-0.3186,-0.319,-0.3215,-0.3166,-0.315,-0.307,-0.3035,-0.3048,-0.296,-0.2985,-0.2955,-0.288,-0.2878,-0.2724,-0.2814,-0.2646,-0.2637,-0.2958,-0.2959,-0.296,0,-0.2613,-0.2738,-0.2907,-0.3073,-0.3111,-0.3178,-0.3258,-0.3316,-0.3359,-0.3357,-0.3359,-0.3301,-0.3298,-0.3208,-0.3172,-0.3155,-0.3093,-0.3038,-0.3037,-0.2831,-0.2728,-0.259,-0.2641,-0.2629,-0.2973,-0.2972,-0.2971,0,-0.2575,-0.279,-0.2922,-0.2984,-0.3168,-0.3217,-0.3282,-0.3345,-0.3379,-0.3428,-0.3435,-0.344,-0.3394,-0.3361,-0.3226,-0.3211,-0.3178,-0.3138,-0.2947,-0.2934,-0.2748,-0.2714,-0.2777,-0.3144,-0.3144,-0.3144,-0.3144,0,-0.2627,-0.2718,-0.2911,-0.299,-0.3101,-0.3214,-0.3297,-0.3358,-0.343,-0.3426,-0.348,-0.3431,-0.3426,-0.3379,-0.3295,-0.3134,-0.3232,-0.2983,-0.2934,-0.2797,-0.2768,-0.2708,-0.2731,-0.3145,-0.3145,-0.3145,-0.3145,0,-0.2562,-0.2706,-0.2853,-0.305,-0.3097,-0.3158,-0.3297,-0.3328,-0.3419,-0.3415,-0.342,-0.3446,-0.3352,-0.3339,-0.3257,-0.3168,-0.2993,-0.2984,-0.2816,-0.2745,-0.2526,-0.2562,-0.255,-0.2481,-0.2799,-0.2795,-0.2792,0,-0.2553,-0.2627,-0.2841,-0.2885,-0.2968,-0.3079,-0.3122,-0.3282,-0.3295,-0.334,-0.3298,-0.3279,-0.3137,-0.3034,-0.2912,-0.2801,-0.2822,-0.2606,-0.2537,-0.2508,-0.2517,-0.2556,-0.2503,-0.2374,-0.2368,-0.2363,-0.2358,0,-0.2482,-0.2541,-0.2643,-0.2755,-0.2823,-0.2914,-0.2989,-0.3019,-0.3116,-0.31,-0.298,-0.2887,-0.2792,-0.2581,-0.2516,-0.2422,-0.2529,-0.2487,-0.2516,-0.224,-0.2232,-0.214,-0.2382,-0.2311,-0.2316,-0.2319,-0.2322,-0.2324,-0.2337,-0.2372,-0.247,-0.255,-0.2629,-0.265,-0.2646,-0.2683,-0.2653,-0.2557,-0.2598,-0.2419,-0.2353,-0.2188,-0.2121,-0.2012,-0.2112,-0.1953,-0.202,-0.208,-0.1953,-0.2076,-0.19,-0.1902,-0.1904,-0.1906,-0.1907,0,-0.2112,-0.2168,-0.224,-0.2314,-0.2302,-0.2431,-0.2454,-0.2374,-0.2215,-0.2188,-0.205,-0.1938,-0.1774,-0.1789,-0.1688,-0.1602,-0.1599,-0.1605,-0.1667,-0.1648,-0.1793,-0.1709,-0.1411,-0.1411,-0.1411,-0.1411,-0.1411,-0.1411,-0.1983,-0.1962,-0.2022,-0.1939,-0.1983,-0.1899,-0.1869,-0.1753,-0.1703,-0.1498,-0.1455,-0.1447,-0.1526,-0.165,-0.1549,-0.1472,-0.1494,-0.1409,-0.1507,-0.1654,-0.1694,-0.1732,-0.1661,-0.1357,-0.1357,-0.1273,-0.1273,-0.1273]},{"header":{"parameterUnit":"m.s-1","parameterCategory":2,"la1":30.2991,"la2":30.254,"lo1":-89.0895,"lo2":-89.0444,"dy":0.0017,"dx":0.0017,"nx":28,"ny":28,"refTime":"2025-11-17T03:00:00:Z","depth":"0","parameterNumber":3,"parameterNumberName":"V-component_of_CURRENTS"},"data":[0,0,0,0,0,0,0,0,0,0,0,0,0,0,0,0,0,0,0,0,0,0,0,0,0,0,0,0,0,0,0,0,0,0,0,0,0,0,0,0,0,0,0,0,0,0,0,0,0,0,0,0,0,0,0,0,0,0,0.1057,0.1058,0,0.1207,0.1209,0.1211,0.1277,0.1276,0.1276,0.1275,0.1358,0.136,0.1363,0,0,0,0,0,0,0,0,0,0,0,0,0,0.0969,0.097,0.1056,0.1058,0.106,0.1207,0.1209,0.1212,0.1277,0.1276,0.1276,0.1275,0.1357,0.136,0.1363,0,0,0,0,0,0,0,0,0,0,0,0,0,0.1054,0.097,0.1056,0.1109,0.1115,0.1207,0.121,0.1212,0.1277,0.1276,0.1275,0.1275,0.1356,0.136,0.1363,0.14,0,0,0.1375,0.1377,0,0,0,0,0,0,0,0,0.1049,0.1057,0.1099,0.1105,0.1112,0.1221,0.1209,0.1271,0.1277,0.1217,0.1275,0.1275,0.1305,0.1313,0.1346,0.1404,0.1407,0.1376,0.1378,0.138,0.1381,0,0,0,0,0,0,0,0.1043,0.1052,0.1118,0.1101,0.1109,0.1174,0.1184,0.1222,0.1263,0.1222,0.1227,0.1241,0.1308,0.1343,0.1349,0.1409,0.1376,0.1379,0.1381,0.1383,0.1495,0.1496,0,0,0,0,0,0,0.1013,0.1046,0.1113,0.1123,0.1076,0.1175,0.1187,0.1188,0.1264,0.1275,0.1241,0.1243,0.1336,0.1344,0.1352,0.1375,0.138,0.1383,0.1386,0.1495,0.1496,0.1496,0,0,0,0,0,0,0.1011,0.1017,0.1107,0.1087,0.1103,0.1176,0.1178,0.1191,0.1218,0.1279,0.1289,0.1252,0.1336,0.1346,0.1385,0.1379,0.1385,0.1389,0.1494,0.1495,0.1496,0.1436,0,0,0,0,0,0,0.1007,0.1015,0.1004,0.1084,0.1102,0.1143,0.1179,0.1195,0.1227,0.1231,0.1292,0.13,0.1336,0.1379,0.1389,0.1384,0.1392,0.1493,0.1494,0.1496,0.1437,0.1434,0.1432,0,0,0,0,0,0.1004,0.0985,0.1003,0.1011,0.1085,0.1143,0.1158,0.1211,0.1227,0.1234,0.1284,0.1297,0.1394,0.1383,0.1394,0.139,0.1493,0.1494,0.1496,0.1438,0.1435,0.1432,0,0,0,0,0,0,0.0939,0.0992,0.1013,0.101,0.1064,0.1152,0.116,0.1204,0.1253,0.125,0.1309,0.1321,0.1351,0.1385,0.1372,0.1429,0.1444,0.1448,0.1396,0.1394,0.1392,0.1361,0.1395,0,0,0,0,0,0.0919,0.0914,0.0987,0.0981,0.1004,0.1082,0.1111,0.115,0.1206,0.1228,0.1276,0.1326,0.1371,0.1391,0.1433,0.1466,0.1488,0.1472,0.1469,0.1467,0.1452,0.1516,0.1517,0.1501,0.1501,0.1501,0,0,0.0891,0.0919,0.0916,0.0967,0.1011,0.1035,0.1097,0.113,0.1151,0.1227,0.126,0.1316,0.1378,0.1415,0.1431,0.144,0.1477,0.1469,0.1466,0.1452,0.1517,0.1519,0.152,0.1502,0.1502,0.1502,0,0,0.0828,0.0858,0.0833,0.0877,0.0934,0.0989,0.0993,0.1078,0.1114,0.116,0.1221,0.1278,0.134,0.1396,0.1429,0.1442,0.1462,0.145,0.1415,0.1477,0.1479,0.148,0.1475,0.1476,0.1451,0.1451,0.1451,0,0.079,0.0767,0.0837,0.0837,0.0855,0.0959,0.0947,0.1014,0.1102,0.1127,0.1151,0.1274,0.1331,0.139,0.1401,0.1434,0.1449,0.1416,0.1472,0.1475,0.1477,0.1472,0.1474,0.1448,0.1449,0.1449,0.1449,0,0.0718,0.0706,0.0698,0.0725,0.0764,0.0769,0.0867,0.0912,0.0968,0.1036,0.1103,0.1206,0.1272,0.1312,0.1361,0.1412,0.1407,0.1458,0.1471,0.1475,0.1469,0.1473,0.1444,0.1445,0.1446,0.1447,0,0,0.0608,0.0634,0.0627,0.0606,0.0697,0.0708,0.0765,0.0829,0.0847,0.0959,0.0985,0.1109,0.1173,0.1216,0.13,0.1372,0.1407,0.1415,0.142,0.1393,0.149,0.1409,0.1405,0.1469,0.1471,0.1472,0.1465,0,0.0519,0.0451,0.0514,0.0468,0.0443,0.0564,0.0598,0.0683,0.0774,0.0836,0.0976,0.103,0.1135,0.1161,0.1256,0.1375,0.1419,0.14,0.1505,0.1506,0.1422,0.1409,0.1428,0.1418,0.1469,0.1469,0.147,0,0.0425,0.0385,0.0305,0.0307,0.0309,0.0318,0.0377,0.0426,0.0577,0.0644,0.0762,0.0877,0.1006,0.109,0.1282,0.1262,0.1355,0.145,0.1454,0.14,0.1433,0.1433,0.1424,0.159,0.1476,0.1475,0.1475,0,0.0276,0.0241,0.0152,0.0157,0.0192,0.0188,0.0222,0.0354,0.0386,0.0526,0.0558,0.0744,0.0811,0.0993,0.1188,0.1238,0.137,0.1467,0.147,0.1463,0.1509,0.1504,0.1661,0.1572,0.1572,0.1572,0.1572,0,0.0153,0.0089,0.0064,0.0021,-0.0074,0.0024,-0.0009,0.0071,0.0185,0.0221,0.0433,0.0492,0.0795,0.0925,0.1121,0.1271,0.131,0.1438,0.1462,0.1483,0.1476,0.1647,0.1716,0.1571,0.1571,0.1571,0.1571,0,0.0021,0.0008,-0.0102,-0.0133,-0.0146,-0.0212,-0.0174,-0.0166,-0.005,0.0008,0.0042,0.0282,0.0468,0.0718,0.0988,0.114,0.1394,0.135,0.1309,0.1327,0.1511,0.1573,0.1677,0.1761,0.1381,0.1379,0.1377,0,-0.0043,-0.0123,-0.0246,-0.0313,-0.0332,-0.0393,-0.0403,-0.0304,-0.0264,-0.011,-0.0086,0.0086,0.0246,0.0557,0.0863,0.1126,0.13,0.1257,0.1378,0.1493,0.1584,0.1635,0.1704,0.1411,0.141,0.1409,0.1408,0,-0.0166,-0.0225,-0.0323,-0.0473,-0.0539,-0.0596,-0.0592,-0.0601,-0.045,-0.0393,-0.0263,-0.014,0.0175,0.0506,0.0801,0.0986,0.136,0.124,0.1422,0.1646,0.1656,0.1755,0.1394,0.1399,0.14,0.1401,0.1401,0.1401,-0.0245,-0.0361,-0.0484,-0.062,-0.0693,-0.0729,-0.0733,-0.0704,-0.0663,-0.0478,-0.0396,-0.0124,0.028,0.0741,0.0908,0.1287,0.1307,0.1468,0.1535,0.1577,0.1659,0.1209,0.1202,0.1202,0.1202,0.1202,0.1202,0,-0.0313,-0.0436,-0.059,-0.0722,-0.0785,-0.0796,-0.0785,-0.0725,-0.0661,-0.0482,-0.0337,0.017,0.055,0.0961,0.143,0.1622,0.1723,0.1719,0.1878,0.1942,0.1616,0.1622,0.1631,0.1631,0.1631,0.1631,0.1631,0.1631,-0.0349,-0.0514,-0.0609,-0.0743,-0.0806,-0.0795,-0.0765,-0.0681,-0.0518,-0.0203,0.0141,0.0391,0.0889,0.1527,0.1958,0.1997,0.2225,0.2142,0.2262,0.2127,0.2113,0.2099,0.2127,0.2242,0.2242,0.2615,0.2619,0.2621]}],[{"header":{"parameterUnit":"m.s-1","parameterCategory":2,"la1":30.2991,"la2":30.254,"lo1":-89.0895,"lo2":-89.0444,"dy":0.0017,"dx":0.0017,"nx":28,"ny":28,"refTime":"2025-11-17T03:00:00:Z","depth":"2","parameterNumber":2,"parameterNumberName":"U-component_of_CURRENTS"},"data":[0,0,0,0,0,0,0,0,0,0,0,0,0,0,0,0,0,0,0,0,0,0,0,0,0,0,0,0,0,0,0,0,0,0,0,0,0,0,0,0,0,0,0,0,0,0,0,0,0,0,0,0,0,0,0,0,0,0,-0.2572,-0.2573,0,-0.2647,-0.2648,-0.2649,-0.2636,-0.2634,-0.2633,-0.2631,-0.2535,-0.2534,-0.2533,0,0,0,0,0,0,0,0,0,0,0,0,0,-0.2338,-0.2343,-0.2572,-0.2573,-0.2573,-0.2647,-0.2648,-0.2649,-0.2636,-0.2634,-0.2632,-0.2631,-0.2535,-0.2534,-0.2533,0,0,0,0,0,0,0,0,0,0,0,0,0,-0.2431,-0.2344,-0.2572,-0.2574,-0.2575,-0.2647,-0.2648,-0.265,-0.2636,-0.2634,-0.2632,-0.263,-0.2536,-0.2534,-0.2532,-0.2566,0,0,-0.2527,-0.2526,0,0,0,0,0,0,0,0,-0.2425,-0.244,-0.2573,-0.2574,-0.2575,-0.2628,-0.253,-0.2613,-0.2637,-0.2615,-0.2631,-0.2629,-0.2551,-0.2548,-0.2572,-0.2562,-0.2558,-0.2527,-0.2526,-0.2525,-0.2525,0,0,0,0,0,0,0,-0.2419,-0.2436,-0.2603,-0.2574,-0.2575,-0.2544,-0.2556,-0.2546,-0.2593,-0.2617,-0.2616,-0.2622,-0.255,-0.2574,-0.2569,-0.2556,-0.2527,-0.2525,-0.2524,-0.2524,-0.2478,-0.2478,0,0,0,0,0,0,-0.2414,-0.2431,-0.2601,-0.2605,-0.2491,-0.255,-0.2564,-0.2615,-0.2597,-0.2593,-0.2624,-0.2621,-0.2578,-0.2571,-0.2565,-0.2541,-0.2525,-0.2523,-0.2522,-0.2478,-0.2478,-0.2478,0,0,0,0,0,0,-0.241,-0.2431,-0.2598,-0.2514,-0.2533,-0.2557,-0.2615,-0.2617,-0.2647,-0.2603,-0.2596,-0.265,-0.2576,-0.2568,-0.2548,-0.2538,-0.2523,-0.2521,-0.2478,-0.2478,-0.2478,-0.2531,0,0,0,0,0,0,-0.2404,-0.243,-0.2445,-0.2517,-0.2538,-0.2642,-0.2617,-0.2621,-0.2653,-0.265,-0.2623,-0.2612,-0.2573,-0.2551,-0.2547,-0.2536,-0.252,-0.2479,-0.2478,-0.2478,-0.253,-0.2533,-0.2536,0,0,0,0,0,-0.2396,-0.2433,-0.2447,-0.2465,-0.2568,-0.2643,-0.2652,-0.2659,-0.2656,-0.2677,-0.2647,-0.2613,-0.2545,-0.2551,-0.2545,-0.2533,-0.2479,-0.2478,-0.2478,-0.2528,-0.2532,-0.2536,0,0,0,0,0,0,-0.2349,-0.2437,-0.2453,-0.2519,-0.2575,-0.2639,-0.2672,-0.2677,-0.2681,-0.2674,-0.2628,-0.2616,-0.2588,-0.2562,-0.257,-0.2517,-0.25,-0.2499,-0.254,-0.2543,-0.2546,-0.2554,-0.2518,0,0,0,0,0,-0.2347,-0.2386,-0.2476,-0.2521,-0.2578,-0.2632,-0.2658,-0.2668,-0.2688,-0.2691,-0.2659,-0.2621,-0.2587,-0.2567,-0.2535,-0.2526,-0.2534,-0.2507,-0.251,-0.2513,-0.2514,-0.2526,-0.2531,-0.2477,-0.2477,-0.2477,0,0,-0.2347,-0.2388,-0.2416,-0.2509,-0.2577,-0.2636,-0.2646,-0.271,-0.2709,-0.2677,-0.2665,-0.2637,-0.2587,-0.256,-0.2545,-0.2536,-0.2539,-0.2513,-0.2516,-0.2515,-0.2527,-0.2532,-0.2537,-0.2476,-0.2476,-0.2476,0,0,-0.236,-0.2424,-0.2473,-0.2531,-0.2613,-0.2641,-0.2665,-0.2738,-0.2734,-0.2731,-0.269,-0.2666,-0.2623,-0.2581,-0.2556,-0.2562,-0.2556,-0.2542,-0.2564,-0.2576,-0.2582,-0.2586,-0.2638,-0.2647,-0.2543,-0.2543,-0.2543,0,-0.2356,-0.243,-0.2494,-0.256,-0.2601,-0.265,-0.2714,-0.2724,-0.2743,-0.2746,-0.2723,-0.2675,-0.2629,-0.2598,-0.2582,-0.2568,-0.2591,-0.2558,-0.2583,-0.2587,-0.2591,-0.2643,-0.2652,-0.2545,-0.2545,-0.2545,-0.2544,0,-0.2401,-0.2473,-0.2527,-0.2611,-0.2652,-0.2725,-0.2763,-0.2774,-0.2769,-0.2767,-0.2749,-0.27,-0.2673,-0.2645,-0.261,-0.2604,-0.262,-0.2591,-0.2581,-0.26,-0.2653,-0.2662,-0.2549,-0.2548,-0.2547,-0.2547,0,0,-0.2378,-0.2533,-0.2548,-0.2606,-0.2691,-0.2738,-0.2753,-0.2795,-0.2818,-0.2789,-0.2811,-0.2731,-0.2728,-0.2697,-0.2655,-0.2648,-0.2693,-0.263,-0.2629,-0.2695,-0.276,-0.2545,-0.2534,-0.2674,-0.2675,-0.2675,-0.28,0,-0.2408,-0.2531,-0.2575,-0.2667,-0.2761,-0.2798,-0.2809,-0.2826,-0.2836,-0.2858,-0.2815,-0.2813,-0.274,-0.2741,-0.2719,-0.2697,-0.2711,-0.2664,-0.2719,-0.2721,-0.2537,-0.2533,-0.2344,-0.2416,-0.2808,-0.281,-0.2811,0,-0.2429,-0.2508,-0.2627,-0.2736,-0.2783,-0.2805,-0.2862,-0.2876,-0.2909,-0.2924,-0.2922,-0.291,-0.2885,-0.2828,-0.2812,-0.279,-0.278,-0.2763,-0.2768,-0.2547,-0.2517,-0.2451,-0.2417,-0.2825,-0.2824,-0.2823,-0.2822,0,-0.2382,-0.2533,-0.2618,-0.2664,-0.279,-0.2815,-0.2849,-0.2895,-0.2917,-0.2975,-0.2999,-0.2997,-0.2973,-0.2967,-0.2878,-0.288,-0.2865,-0.2876,-0.2687,-0.2677,-0.251,-0.2478,-0.2886,-0.2885,-0.2885,-0.2885,-0.2884,0,-0.2404,-0.2464,-0.2609,-0.2666,-0.2732,-0.2811,-0.2868,-0.2909,-0.297,-0.2943,-0.3022,-0.2957,-0.2998,-0.2965,-0.2935,-0.2796,-0.2912,-0.2686,-0.2673,-0.2521,-0.2491,-0.2827,-0.2818,-0.289,-0.2888,-0.2888,-0.2887,0,-0.2337,-0.2466,-0.2549,-0.2684,-0.2728,-0.2757,-0.2863,-0.2871,-0.2966,-0.2934,-0.2947,-0.296,-0.2877,-0.2907,-0.2886,-0.2818,-0.2758,-0.2687,-0.251,-0.2467,-0.2585,-0.2578,-0.2561,-0.2554,-0.2548,-0.2543,-0.2539,0,-0.2317,-0.2364,-0.251,-0.2554,-0.2615,-0.2693,-0.271,-0.2836,-0.2802,-0.2831,-0.2744,-0.2752,-0.2616,-0.257,-0.2481,-0.246,-0.2561,-0.2277,-0.2205,-0.2552,-0.2543,-0.2545,-0.2546,-0.2066,-0.2058,-0.2052,-0.2047,0,-0.2237,-0.2281,-0.2338,-0.2409,-0.2459,-0.2513,-0.2528,-0.2504,-0.2544,-0.2566,-0.2434,-0.2385,-0.2288,-0.2117,-0.2098,-0.2044,-0.2272,-0.2138,-0.2563,-0.2118,-0.2077,-0.207,-0.209,-0.1991,-0.1996,-0.2,-0.2003,-0.2006,-0.2141,-0.2124,-0.2189,-0.2202,-0.2273,-0.2234,-0.2165,-0.2164,-0.2123,-0.2028,-0.2051,-0.1947,-0.1946,-0.1762,-0.1675,-0.1652,-0.1808,-0.1798,-0.1823,-0.1854,-0.1713,-0.1656,-0.1472,-0.1474,-0.1477,-0.1479,-0.148,0,-0.2044,-0.2011,-0.198,-0.2009,-0.1944,-0.2064,-0.1958,-0.1844,-0.1696,-0.1691,-0.1637,-0.1459,-0.1353,-0.1379,-0.1235,-0.1216,-0.1275,-0.119,-0.1289,-0.1342,-0.1391,-0.1233,-0.0862,-0.0861,-0.0859,-0.0858,0,0,-0.2016,-0.1928,-0.1833,-0.1659,-0.1663,-0.151,-0.1397,-0.1319,-0.1258,-0.1162,-0.1148,-0.1248,-0.1291,-0.1065,-0.1024,-0.0912,-0.112,-0.0866,-0.1356,-0.1521,-0.1567,-0.1726,-0.1537,0,0,0,0,0]},{"header":{"parameterUnit":"m.s-1","parameterCategory":2,"la1":30.2991,"la2":30.254,"lo1":-89.0895,"lo2":-89.0444,"dy":0.0017,"dx":0.0017,"nx":28,"ny":28,"refTime":"2025-11-17T03:00:00:Z","depth":"2","parameterNumber":3,"parameterNumberName":"V-component_of_CURRENTS"},"data":[0,0,0,0,0,0,0,0,0,0,0,0,0,0,0,0,0,0,0,0,0,0,0,0,0,0,0,0,0,0,0,0,0,0,0,0,0,0,0,0,0,0,0,0,0,0,0,0,0,0,0,0,0,0,0,0,0,0,-0.0591,-0.059,0,-0.0439,-0.0437,-0.0435,-0.0376,-0.0377,-0.0378,-0.0378,-0.021,-0.0205,-0.02,0,0,0,0,0,0,0,0,0,0,0,0,0,-0.0669,-0.0668,-0.0592,-0.059,-0.0588,-0.0439,-0.0437,-0.0434,-0.0376,-0.0377,-0.0378,-0.0379,-0.0212,-0.0206,-0.02,0,0,0,0,0,0,0,0,0,0,0,0,0,-0.0584,-0.0668,-0.0592,-0.0544,-0.0538,-0.044,-0.0437,-0.0434,-0.0376,-0.0377,-0.0378,-0.0379,-0.0214,-0.0207,-0.0199,-0.0128,0,0,-0.0175,-0.0172,0,0,0,0,0,0,0,0,-0.059,-0.0581,-0.0553,-0.0547,-0.0541,-0.0431,-0.0402,-0.0332,-0.0375,-0.0434,-0.0378,-0.038,-0.0284,-0.0271,-0.0234,-0.012,-0.0113,-0.0174,-0.017,-0.0166,-0.0164,0,0,0,0,0,0,0,-0.0596,-0.0587,-0.0527,-0.0551,-0.0544,-0.0474,-0.0465,-0.0388,-0.0351,-0.0429,-0.0425,-0.0413,-0.0281,-0.0242,-0.023,-0.011,-0.0175,-0.0168,-0.0163,-0.016,0.0089,0.0091,0,0,0,0,0,0,-0.0629,-0.0593,-0.0532,-0.0523,-0.0572,-0.0473,-0.0462,-0.0462,-0.0352,-0.0338,-0.0413,-0.0411,-0.0255,-0.0239,-0.0224,-0.0137,-0.0166,-0.0159,-0.0155,0.0087,0.0089,0.0091,0,0,0,0,0,0,-0.0631,-0.0625,-0.0539,-0.0557,-0.0541,-0.0472,-0.0471,-0.0459,-0.0425,-0.0341,-0.0326,-0.0394,-0.0255,-0.0235,-0.0147,-0.0131,-0.0156,-0.0148,0.0085,0.0088,0.009,0.0038,0,0,0,0,0,0,-0.0634,-0.0628,-0.0629,-0.056,-0.0542,-0.0488,-0.047,-0.0455,-0.0418,-0.0415,-0.032,-0.0305,-0.0254,-0.0159,-0.014,-0.012,-0.0142,0.0082,0.0086,0.0089,0.0038,0.0039,0.0041,0,0,0,0,0,-0.0638,-0.0641,-0.063,-0.0622,-0.055,-0.0488,-0.0471,-0.0422,-0.0416,-0.0397,-0.0327,-0.0308,-0.0123,-0.0151,-0.0129,-0.0107,0.008,0.0085,0.0089,0.0037,0.0039,0.0041,0,0,0,0,0,0,-0.0669,-0.0634,-0.062,-0.0612,-0.0558,-0.048,-0.0454,-0.0425,-0.0352,-0.0347,-0.0277,-0.0255,-0.0174,-0.0124,-0.0157,-0.0021,-0.002,-0.0011,-0.0067,-0.0064,-0.0063,-0.0092,-0.0136,0,0,0,0,0,-0.068,-0.0677,-0.0623,-0.0612,-0.059,-0.0522,-0.0489,-0.0457,-0.0389,-0.0359,-0.0291,-0.0211,-0.0133,-0.0091,-0.0014,0.0066,0.0111,0.0095,0.0097,0.0097,0.0092,0.0163,0.0169,0.0106,0.0106,0.0106,0,0,-0.0684,-0.0668,-0.0662,-0.0619,-0.0572,-0.0529,-0.0504,-0.0458,-0.0414,-0.035,-0.0266,-0.0203,-0.011,-0.0025,0.0016,0.0016,0.0147,0.0103,0.0102,0.0097,0.0168,0.0174,0.0179,0.0109,0.0108,0.0108,0,0,-0.0696,-0.0681,-0.068,-0.0638,-0.0583,-0.0535,-0.0528,-0.0449,-0.0408,-0.0324,-0.0266,-0.0196,-0.0073,-0.0005,0.0045,0.0105,0.015,0.0131,0.0117,0.0185,0.019,0.0195,0.0282,0.0294,0.0132,0.0132,0.0132,0,-0.0703,-0.0697,-0.0664,-0.0643,-0.0607,-0.0545,-0.0515,-0.0453,-0.0353,-0.0312,-0.0308,-0.013,-0.0063,0.0043,0.006,0.0105,0.0155,0.0094,0.0183,0.0188,0.0194,0.0282,0.0296,0.013,0.013,0.013,0.0131,0,-0.0706,-0.0691,-0.0681,-0.0639,-0.0594,-0.0556,-0.0478,-0.0423,-0.0375,-0.0315,-0.0213,-0.012,-0.0021,0.0013,0.0054,0.0137,0.0166,0.0169,0.0164,0.0196,0.0288,0.0304,0.0127,0.0128,0.0128,0.0129,0,0,-0.0743,-0.0698,-0.0691,-0.0673,-0.059,-0.0555,-0.0479,-0.0393,-0.0343,-0.0258,-0.0185,-0.0072,-0.0038,0.0021,0.0083,0.0136,0.0223,0.0161,0.0165,0.0223,0.0392,0.0325,0.0336,0.0233,0.0235,0.0237,0.0447,0,-0.0751,-0.0741,-0.0697,-0.065,-0.0631,-0.0544,-0.0473,-0.0388,-0.0313,-0.022,-0.0133,-0.004,-0.0026,0.0019,0.0075,0.019,0.0259,0.0166,0.0374,0.0381,0.0296,0.035,0.0317,0.0492,0.0463,0.0465,0.0467,0,-0.0768,-0.0758,-0.0743,-0.0667,-0.0646,-0.0603,-0.0496,-0.0422,-0.0283,-0.0224,-0.0135,-0.0052,0.0063,0.0057,0.0245,0.0184,0.0282,0.0357,0.0367,0.0327,0.0341,0.0456,0.0523,0.0495,0.0492,0.049,0.0489,0,-0.0837,-0.0782,-0.0782,-0.0755,-0.0661,-0.0628,-0.0564,-0.0438,-0.0367,-0.0229,-0.0167,-0.0029,0.0057,0.0176,0.0317,0.0297,0.0514,0.0517,0.0559,0.0558,0.0581,0.0576,0.065,0.065,0.065,0.0649,0.0648,0,-0.0876,-0.0862,-0.0822,-0.0816,-0.0792,-0.0693,-0.0632,-0.0551,-0.0408,-0.0339,-0.0186,-0.0127,0.0085,0.023,0.0343,0.0491,0.0544,0.0568,0.0602,0.0565,0.0556,0.0588,0.0578,0.0657,0.0655,0.0654,0.0652,0,-0.0954,-0.0926,-0.0924,-0.0856,-0.0836,-0.0825,-0.07,-0.0638,-0.0501,-0.0404,-0.0357,-0.0156,-0.0,0.0214,0.0435,0.0526,0.0674,0.0717,0.066,0.068,0.0679,0.0664,0.0809,0.0808,0.0808,0.0807,0.0807,0,-0.0994,-0.101,-0.0992,-0.0999,-0.0976,-0.0929,-0.0879,-0.0725,-0.0655,-0.0466,-0.0429,-0.0226,-0.0106,0.0217,0.0406,0.0645,0.0657,0.0754,0.0688,0.0674,0.0694,0.068,0.0667,0.0741,0.074,0.0739,0.0739,0,-0.1066,-0.1074,-0.1079,-0.1105,-0.1089,-0.1042,-0.0965,-0.0925,-0.0743,-0.0634,-0.0508,-0.039,-0.01,0.0133,0.0442,0.0555,0.0706,0.0739,0.0788,0.0657,0.0612,0.063,0.062,0.0732,0.0733,0.0733,0.0733,0.0734,-0.1128,-0.1163,-0.118,-0.1194,-0.1181,-0.1145,-0.1101,-0.1003,-0.0894,-0.0704,-0.0611,-0.0395,-0.0143,0.0253,0.0441,0.0629,0.063,0.0715,0.0718,0.0721,0.0627,0.0578,0.0677,0.0678,0.0678,0.0678,0.0678,0,-0.1197,-0.1223,-0.1246,-0.1255,-0.1242,-0.1206,-0.1131,-0.1058,-0.0955,-0.078,-0.0612,-0.0334,-0.0046,0.0197,0.0475,0.0647,0.0665,0.0675,0.0685,0.069,0.0695,0.0599,0.0643,0.0644,0.0644,0.0644,0,0,-0.1236,-0.1283,-0.128,-0.1288,-0.128,-0.122,-0.1178,-0.1092,-0.0959,-0.0781,-0.0595,-0.0336,-0.0043,0.0157,0.0372,0.0513,0.0554,0.0519,0.053,0.052,0.0523,0.07,0.0553,0,0,0,0,0]}],[{"header":{"parameterUnit":"m.s-1","parameterCategory":2,"la1":30.2991,"la2":30.254,"lo1":-89.0895,"lo2":-89.0444,"dy":0.0017,"dx":0.0017,"nx":28,"ny":28,"refTime":"2025-11-17T03:00:00:Z","depth":"4","parameterNumber":2,"parameterNumberName":"U-component_of_CURRENTS"},"data":[0,0,0,0,0,0,0,0,0,0,0,0,0,0,0,0,0,0,0,0,0,0,0,0,0,0,0,0,0,0,0,0,0,0,0,0,0,0,0,0,0,0,0,0,0,0,0,0,0,0,0,0,0,0,0,0,0,0,-0.1112,-0.1113,0,-0.1147,-0.1148,-0.1148,-0.117,-0.1171,-0.1171,-0.1171,-0.1222,-0.1224,-0.1225,0,0,0,0,0,0,0,0,0,0,0,0,0,-0.1061,-0.1062,-0.1112,-0.1113,-0.1113,-0.1147,-0.1148,-0.1148,-0.117,-0.1171,-0.1171,-0.1171,-0.1222,-0.1223,-0.1225,0,0,0,0,0,0,0,0,0,0,0,0,0,-0.1088,-0.1062,-0.1112,-0.1129,-0.113,-0.1147,-0.1148,-0.1148,-0.117,-0.1171,-0.1171,-0.1171,-0.1221,-0.1223,-0.1225,-0.1232,0,0,-0.1231,-0.1232,0,0,0,0,0,0,0,0,-0.1087,-0.109,-0.1126,-0.1128,-0.113,-0.1155,-0.1149,-0.1177,-0.117,-0.1155,-0.1171,-0.1171,-0.1201,-0.1205,-0.121,-0.1234,-0.1236,-0.1231,-0.1232,-0.1233,-0.1233,0,0,0,0,0,0,0,-0.1085,-0.1089,-0.1126,-0.1126,-0.1129,-0.1133,-0.1137,-0.1154,-0.1176,-0.1156,-0.1158,-0.1162,-0.1203,-0.1208,-0.1212,-0.1237,-0.1231,-0.1232,-0.1234,-0.1234,-0.1342,-0.1344,0,0,0,0,0,0,-0.1081,-0.1087,-0.1125,-0.1127,-0.1109,-0.1134,-0.1138,-0.1146,-0.1176,-0.1181,-0.1162,-0.1163,-0.1205,-0.121,-0.1214,-0.1249,-0.1233,-0.1235,-0.1236,-0.134,-0.1342,-0.1344,0,0,0,0,0,0,-0.108,-0.1084,-0.1123,-0.1108,-0.1113,-0.1134,-0.1143,-0.1147,-0.117,-0.118,-0.1185,-0.1183,-0.1206,-0.1211,-0.124,-0.125,-0.1235,-0.1237,-0.1338,-0.1341,-0.1343,-0.1304,0,0,0,0,0,0,-0.1078,-0.1084,-0.1094,-0.1108,-0.1114,-0.1142,-0.1143,-0.1147,-0.1171,-0.1173,-0.12,-0.1203,-0.1206,-0.1238,-0.1242,-0.1253,-0.1238,-0.1336,-0.1339,-0.1343,-0.1303,-0.1305,-0.1307,0,0,0,0,0,-0.1077,-0.109,-0.1095,-0.1099,-0.1126,-0.1143,-0.1147,-0.1162,-0.1172,-0.1183,-0.1201,-0.1204,-0.1263,-0.124,-0.1245,-0.1256,-0.1334,-0.1339,-0.1342,-0.1302,-0.1305,-0.1307,0,0,0,0,0,0,-0.1074,-0.1094,-0.1099,-0.1118,-0.1133,-0.1147,-0.116,-0.1172,-0.1196,-0.12,-0.1214,-0.1219,-0.1244,-0.127,-0.1245,-0.1304,-0.1304,-0.131,-0.1272,-0.1275,-0.1277,-0.1329,-0.124,0,0,0,0,0,-0.1077,-0.1094,-0.1109,-0.1126,-0.1132,-0.115,-0.1161,-0.1171,-0.1189,-0.1201,-0.1229,-0.1257,-0.1264,-0.1284,-0.1299,-0.1333,-0.1352,-0.1353,-0.1354,-0.1355,-0.1406,-0.1429,-0.1437,-0.1357,-0.1357,-0.1357,0,0,-0.1078,-0.1094,-0.1102,-0.1126,-0.1138,-0.1151,-0.1158,-0.1177,-0.1198,-0.1202,-0.1254,-0.1256,-0.1272,-0.1296,-0.1314,-0.1321,-0.1379,-0.136,-0.136,-0.1412,-0.1434,-0.1442,-0.1448,-0.136,-0.136,-0.1359,0,0,-0.108,-0.1105,-0.1112,-0.1129,-0.1149,-0.1161,-0.1171,-0.12,-0.1225,-0.127,-0.1262,-0.1296,-0.1332,-0.1345,-0.1351,-0.1388,-0.1375,-0.1378,-0.1438,-0.1457,-0.1464,-0.147,-0.1452,-0.1457,-0.1392,-0.1392,-0.1392,0,-0.1077,-0.1094,-0.1117,-0.113,-0.1148,-0.1168,-0.118,-0.1207,-0.1249,-0.1266,-0.1293,-0.135,-0.1369,-0.138,-0.1401,-0.1393,-0.1382,-0.1411,-0.1456,-0.1463,-0.147,-0.1452,-0.1458,-0.139,-0.139,-0.139,-0.1391,0,-0.108,-0.1099,-0.1108,-0.1133,-0.1157,-0.1172,-0.1206,-0.1241,-0.1284,-0.1306,-0.1354,-0.1396,-0.1439,-0.1436,-0.1438,-0.148,-0.1443,-0.1434,-0.144,-0.1475,-0.1453,-0.146,-0.1388,-0.1389,-0.1389,-0.1389,0,0,-0.1057,-0.1097,-0.1105,-0.1114,-0.1161,-0.1175,-0.1221,-0.1252,-0.1274,-0.1349,-0.1391,-0.1448,-0.1479,-0.1497,-0.1494,-0.1538,-0.1563,-0.1519,-0.1521,-0.1484,-0.1566,-0.1466,-0.1463,-0.1534,-0.1537,-0.1538,-0.151,0,-0.1048,-0.1065,-0.1102,-0.1128,-0.1132,-0.1182,-0.1222,-0.1259,-0.1304,-0.1352,-0.1413,-0.1451,-0.1491,-0.151,-0.1563,-0.1554,-0.1589,-0.1571,-0.1559,-0.1559,-0.145,-0.1472,-0.1546,-0.1516,-0.1517,-0.1518,-0.1519,0,-0.1035,-0.105,-0.1068,-0.1114,-0.1125,-0.1156,-0.1213,-0.1256,-0.1313,-0.1349,-0.1414,-0.1448,-0.1529,-0.1565,-0.1628,-0.1599,-0.1613,-0.1618,-0.1616,-0.1561,-0.1475,-0.1491,-0.1532,-0.1531,-0.153,-0.1529,-0.1528,0,-0.0988,-0.103,-0.1043,-0.1061,-0.1115,-0.1148,-0.1193,-0.1251,-0.1278,-0.1352,-0.138,-0.1458,-0.1518,-0.1565,-0.162,-0.1614,-0.1667,-0.1645,-0.1567,-0.1557,-0.167,-0.1664,-0.1715,-0.1715,-0.1715,-0.1715,-0.1715,0,-0.0952,-0.0967,-0.1025,-0.103,-0.1057,-0.1125,-0.1161,-0.1209,-0.1272,-0.1309,-0.1387,-0.1439,-0.153,-0.157,-0.1606,-0.1604,-0.1658,-0.1601,-0.156,-0.1646,-0.1639,-0.167,-0.1665,-0.1714,-0.1714,-0.1715,-0.1715,0,-0.0887,-0.0925,-0.0944,-0.1009,-0.1028,-0.1059,-0.1133,-0.1148,-0.123,-0.1288,-0.1319,-0.1417,-0.1482,-0.153,-0.1593,-0.1574,-0.1582,-0.1568,-0.164,-0.1599,-0.1456,-0.145,-0.147,-0.1466,-0.1464,-0.1461,-0.1459,0,-0.0855,-0.0852,-0.0915,-0.0924,-0.0956,-0.1004,-0.1023,-0.111,-0.1142,-0.1283,-0.1306,-0.1393,-0.1459,-0.1449,-0.1512,-0.1516,-0.1525,-0.149,-0.1521,-0.1481,-0.1439,-0.1438,-0.1436,-0.1455,-0.1454,-0.1453,-0.1452,0,-0.0788,-0.0819,-0.0834,-0.0848,-0.0873,-0.0898,-0.0959,-0.0975,-0.1105,-0.1171,-0.1275,-0.1323,-0.1378,-0.1418,-0.1411,-0.1432,-0.1489,-0.1461,-0.1467,-0.1496,-0.1462,-0.1424,-0.1425,-0.1442,-0.1444,-0.1445,-0.1445,0,-0.0748,-0.0743,-0.0762,-0.0766,-0.0789,-0.0812,-0.0856,-0.0924,-0.0975,-0.1154,-0.119,-0.1303,-0.1391,-0.1375,-0.1385,-0.137,-0.1371,-0.1338,-0.1351,-0.1362,-0.1342,-0.1284,-0.1193,0,0,0,0,0,-0.0702,-0.0675,-0.0673,-0.0681,-0.07,-0.0721,-0.0811,-0.0869,-0.1003,-0.105,-0.1127,-0.1192,-0.1241,-0.1285,-0.1249,-0.1316,-0.1351,-0.1266,-0.1313,-0.1387,-0.1399,-0.1385,0,0,0,0,0,0,-0.0669,-0.0659,-0.0644,-0.0602,-0.0593,-0.0618,-0.0685,-0.0783,-0.0832,-0.0977,-0.1006,-0.1102,-0.1149,-0.1234,-0.1214,-0.1223,-0.1228,-0.1322,-0.1319,-0.138,-0.1391,-0.14,-0.139,0,0,0,0,0]},{"header":{"parameterUnit":"m.s-1","parameterCategory":2,"la1":30.2991,"la2":30.254,"lo1":-89.0895,"lo2":-89.0444,"dy":0.0017,"dx":0.0017,"nx":28,"ny":28,"refTime":"2025-11-17T03:00:00:Z","depth":"4","parameterNumber":3,"parameterNumberName":"V-component_of_CURRENTS"},"data":[0,0,0,0,0,0,0,0,0,0,0,0,0,0,0,0,0,0,0,0,0,0,0,0,0,0,0,0,0,0,0,0,0,0,0,0,0,0,0,0,0,0,0,0,0,0,0,0,0,0,0,0,0,0,0,0,0,0,-0.0418,-0.0417,0,-0.0383,-0.0383,-0.0382,-0.0344,-0.0343,-0.0343,-0.0342,-0.0287,-0.0286,-0.0285,0,0,0,0,0,0,0,0,0,0,0,0,0,-0.042,-0.042,-0.0418,-0.0417,-0.0417,-0.0383,-0.0383,-0.0382,-0.0344,-0.0343,-0.0343,-0.0342,-0.0287,-0.0286,-0.0284,0,0,0,0,0,0,0,0,0,0,0,0,0,-0.0405,-0.042,-0.0418,-0.0395,-0.0392,-0.0383,-0.0383,-0.0382,-0.0344,-0.0343,-0.0343,-0.0342,-0.0287,-0.0286,-0.0284,-0.0288,0,0,-0.0279,-0.0279,0,0,0,0,0,0,0,0,-0.0406,-0.0405,-0.0398,-0.0396,-0.0394,-0.0368,-0.0363,-0.035,-0.0344,-0.0361,-0.0342,-0.0342,-0.0313,-0.0309,-0.0303,-0.0286,-0.0283,-0.0279,-0.0278,-0.0278,-0.0277,0,0,0,0,0,0,0,-0.0407,-0.0406,-0.0403,-0.0398,-0.0395,-0.0376,-0.0373,-0.036,-0.034,-0.036,-0.0357,-0.0355,-0.0311,-0.0305,-0.0301,-0.0283,-0.0279,-0.0278,-0.0277,-0.0276,-0.0267,-0.0268,0,0,0,0,0,0,-0.0416,-0.0407,-0.0404,-0.0402,-0.0399,-0.0377,-0.0373,-0.0376,-0.0341,-0.0335,-0.0356,-0.0354,-0.0308,-0.0303,-0.0299,-0.0329,-0.0278,-0.0276,-0.0275,-0.0267,-0.0267,-0.0268,0,0,0,0,0,0,-0.0416,-0.0416,-0.0405,-0.0404,-0.0402,-0.0378,-0.0381,-0.0376,-0.037,-0.0338,-0.0332,-0.0356,-0.0307,-0.0302,-0.03,-0.0326,-0.0275,-0.0274,-0.0266,-0.0267,-0.0268,-0.0372,0,0,0,0,0,0,-0.0416,-0.0417,-0.0422,-0.0405,-0.0402,-0.0412,-0.0381,-0.0376,-0.0371,-0.0367,-0.0336,-0.033,-0.0306,-0.0303,-0.0299,-0.0323,-0.0273,-0.0265,-0.0266,-0.0267,-0.0367,-0.0376,-0.0384,0,0,0,0,0,-0.0417,-0.0429,-0.0423,-0.0423,-0.0411,-0.0414,-0.0411,-0.039,-0.0372,-0.038,-0.0359,-0.0331,-0.0308,-0.0303,-0.0298,-0.0321,-0.0264,-0.0266,-0.0267,-0.0364,-0.0374,-0.0383,0,0,0,0,0,0,-0.0428,-0.0426,-0.0419,-0.0428,-0.0427,-0.0408,-0.0411,-0.0396,-0.0386,-0.038,-0.0345,-0.0339,-0.0348,-0.0317,-0.0312,-0.032,-0.0279,-0.028,-0.0354,-0.0364,-0.0372,-0.0359,-0.0271,0,0,0,0,0,-0.0436,-0.0447,-0.044,-0.0449,-0.045,-0.0432,-0.0429,-0.0418,-0.0405,-0.0399,-0.038,-0.0357,-0.035,-0.0343,-0.033,-0.0336,-0.0291,-0.0344,-0.0353,-0.036,-0.0345,-0.031,-0.0314,-0.0273,-0.0273,-0.0273,0,0,-0.0442,-0.0442,-0.0449,-0.0453,-0.0447,-0.0461,-0.0428,-0.0432,-0.0442,-0.0395,-0.0405,-0.0389,-0.0359,-0.0371,-0.037,-0.0348,-0.0351,-0.0362,-0.0369,-0.0349,-0.0312,-0.0316,-0.032,-0.0275,-0.0274,-0.0274,0,0,-0.0466,-0.0463,-0.0483,-0.0488,-0.0489,-0.0482,-0.0488,-0.0478,-0.0473,-0.0482,-0.0454,-0.0448,-0.0436,-0.0421,-0.0411,-0.0451,-0.0398,-0.0452,-0.0482,-0.0451,-0.0454,-0.0456,-0.0419,-0.0417,-0.0453,-0.0453,-0.0454,0,-0.0474,-0.0497,-0.0489,-0.051,-0.0518,-0.0497,-0.0521,-0.0518,-0.0509,-0.0509,-0.0496,-0.0476,-0.0456,-0.0463,-0.0478,-0.047,-0.044,-0.0455,-0.0462,-0.0463,-0.0463,-0.0424,-0.0421,-0.0459,-0.0458,-0.0457,-0.0457,0,-0.0511,-0.0533,-0.0545,-0.0568,-0.0577,-0.0594,-0.0592,-0.06,-0.059,-0.0579,-0.0583,-0.0557,-0.0539,-0.0543,-0.0524,-0.0524,-0.05,-0.0483,-0.0441,-0.0474,-0.0431,-0.0425,-0.0466,-0.0464,-0.0463,-0.0461,0,0,-0.0523,-0.0565,-0.0571,-0.0593,-0.0609,-0.062,-0.0646,-0.0658,-0.0667,-0.0656,-0.0662,-0.0652,-0.0625,-0.061,-0.0589,-0.0561,-0.0549,-0.0528,-0.0524,-0.0496,-0.0477,-0.0386,-0.037,-0.0541,-0.054,-0.0539,-0.0452,0,-0.0555,-0.061,-0.0622,-0.0672,-0.0698,-0.0697,-0.0721,-0.0726,-0.0722,-0.0724,-0.0689,-0.0686,-0.0656,-0.0654,-0.0624,-0.0568,-0.0535,-0.0573,-0.0442,-0.0437,-0.0357,-0.0361,-0.0537,-0.0447,-0.0445,-0.0444,-0.0444,0,-0.0586,-0.0621,-0.068,-0.0725,-0.0736,-0.0765,-0.0794,-0.0811,-0.0805,-0.0798,-0.0782,-0.075,-0.0717,-0.0683,-0.0589,-0.0618,-0.055,-0.0498,-0.0494,-0.036,-0.0334,-0.04,-0.0432,-0.0433,-0.0434,-0.0435,-0.0435,0,-0.0597,-0.0659,-0.0709,-0.0726,-0.0774,-0.0802,-0.0825,-0.0835,-0.0842,-0.0842,-0.083,-0.0795,-0.0752,-0.0686,-0.056,-0.0587,-0.0431,-0.0457,-0.0308,-0.0301,-0.0365,-0.0364,-0.0377,-0.0377,-0.0377,-0.0377,-0.0378,0,-0.062,-0.0661,-0.0723,-0.0751,-0.0809,-0.0828,-0.0873,-0.089,-0.0892,-0.0878,-0.0863,-0.0816,-0.0745,-0.0643,-0.0565,-0.0392,-0.0429,-0.0296,-0.0266,-0.0413,-0.0418,-0.0362,-0.0361,-0.0374,-0.0375,-0.0375,-0.0376,0,-0.0621,-0.0664,-0.0724,-0.0791,-0.0819,-0.0856,-0.0906,-0.0919,-0.0923,-0.0902,-0.0898,-0.0819,-0.0678,-0.0576,-0.0435,-0.0364,-0.0239,-0.0164,-0.0306,-0.0288,-0.0142,-0.0148,-0.0031,-0.0027,-0.0024,-0.0021,-0.0018,0,-0.0629,-0.066,-0.075,-0.0791,-0.0829,-0.0886,-0.0915,-0.094,-0.0935,-0.0875,-0.0844,-0.0716,-0.0641,-0.037,-0.0281,-0.0118,-0.0087,-0.0045,-0.0119,-0.012,-0.0103,-0.0115,-0.0125,-0.0013,-0.0012,-0.0011,-0.001,0,-0.0637,-0.067,-0.0717,-0.0799,-0.0851,-0.0895,-0.093,-0.0927,-0.0912,-0.0911,-0.0762,-0.0635,-0.045,-0.0302,-0.0146,-0.0039,-0.0102,-0.0009,-0.0018,-0.0087,-0.0097,-0.0086,-0.01,0.0002,0.0,-0.0001,-0.0002,0,-0.0637,-0.0669,-0.0732,-0.0797,-0.0856,-0.0879,-0.0907,-0.0869,-0.0858,-0.0785,-0.0716,-0.0549,-0.046,-0.0252,-0.0115,0.0008,0.0007,-0.0002,-0.0011,-0.0023,-0.0046,-0.006,0.0093,0,0,0,0,0,-0.0633,-0.0666,-0.0726,-0.0794,-0.0842,-0.0877,-0.0898,-0.0906,-0.0883,-0.0765,-0.0742,-0.0562,-0.0327,-0.0231,-0.0088,-0.0085,0.0002,0.0081,-0.002,0.0069,0.0055,0.0035,0,0,0,0,0,0,-0.0633,-0.0685,-0.0716,-0.0765,-0.0806,-0.085,-0.0863,-0.0853,-0.0783,-0.074,-0.0605,-0.0539,-0.0311,-0.04,-0.0086,-0.0049,-0.0098,0.0187,0.019,0.0077,0.0064,0.0053,0.0028,0,0,0,0,0]}]]